Welcome to the New NWS' Forecast!
Most changes are behind the scenes, but click here for differences you might notice.

Regional Weather Roundup (RWR)

Issued by National Weather Service (NWS)

                            
000
ASUS42 KTBW 231216
RWRFL 
FLORIDA REGIONAL WEATHER ROUNDUP
NATIONAL WEATHER SERVICE TAMPA BAY RUSKIN FL
800 AM EDT SUN SEP 23 2018

NOTE: "FAIR" INDICATES FEW OR NO CLOUDS BELOW 12,000 FEET WITH NO
SIGNIFICANT WEATHER AND/OR OBSTRUCTIONS TO VISIBILITY.

FLZ001>010-012>015-112-114-115-231300-
PANHANDLE FLORIDA
  
CITY           SKY/WX    TMP DP  RH WIND       PRES   REMARKS
PENSACOLA      FAIR      77  72  84 NE6       29.98R                  
MILTON NAS     FAIR      71  70  96 E3        29.99                   
CRESTVIEW      FAIR      70  68  93 CALM      30.01R                  
DUKE FIELD     FAIR      70  69  98 CALM      29.99R                  
MARY ESTHER    CLEAR     74  64  70 E7        29.97R                  
PANAMA CITY    FAIR      73  70  90 NE5       29.98R                  
TYNDALL AFB    FAIR      74  73  95 CALM      29.99R                  
APALACHICOLA   MOCLDY    77  76  96 NE6       29.97R                  

STATION/POSITION SKY/WX   TEMP    WIND        PRES    WAVE   SWELL
                          AIR SEA DIR/SP/G            HT/PER HT/PER
                          (F)     (DEG/KT/KT) (MB)    (FT/S) (FT/S)
30.1N   87.6W              84     120/ 10/ 14 1014.6R   2/ 5   2/ 6
29.2N   88.2W                 86  100/ 12/ 14 1014.4R   2/ 8   2/ 8
28.8N   86.0W              80 86  100/  8/ 10   N/A     2/ 5   2/ 5
PANAMA CITY BEAC           76 87              1015.7R
TOWER C                    83     170/ 10/ 11 1015.3R

$$
FLZ011-016>038-118-127-128-134-139-239-231300-
NORTH FLORIDA
  
CITY           SKY/WX    TMP DP  RH WIND       PRES   REMARKS
MARIANNA       FAIR      72  70  93 NE3       30.01R                  
TALLAHASSEE    FAIR      74  72  93 E3        30.01R                  
PERRY          FAIR      73  71  92 CALM      30.02R                  
LIVE OAK       CLEAR     72  72 100 CALM      30.02R                  
CROSS CITY     FAIR      73  72  98 CALM      30.01R                  
LAKE CITY      FAIR      68  68 100 CALM      30.03S                  
GAINESVILLE    FAIR      73  70  90 CALM      30.04R                  
PALATKA        FAIR      70  70 100 CALM      30.02R                  
MAYPORT NAS    FAIR      78  73  84 CALM      30.02R                  
JACKSONVILLE   FAIR      73  72  96 CALM      30.02R                  
JAX NAS        FAIR      78  73  84 CALM      30.03R                  
JAX CECIL      CLEAR     68  68 100 CALM      30.02R                  
ST AUGUSTINE   FAIR      74  70  87 CALM      30.03R                  
PALM COAST     CLEAR     70  70 100 CALM      30.01R                  

STATION/POSITION SKY/WX   TEMP    WIND        PRES    WAVE   SWELL
                          AIR SEA DIR/SP/G            HT/PER HT/PER
                          (F)     (DEG/KT/KT) (MB)    (FT/S) (FT/S)
SHELL POINT      NOT AVBL
KEATON BEACH               74      50/  5/  6 1016.4R
CEDAR KEY                  77      70/  8/  9 1016.3R
FERNANDINA                 79 85              1017.4R
30.7N   81.3W                 85                N/A     3/12   2/12
MAYPORT                    80 85              1016.9R
31.4N   80.9W              82 84  170/  4/  6 1016.7R   3/10   3/10
ST AUGUSTINE               82 83  110/  7/  8 1016.8R

$$
FLZ040-043>046-052-053-057-058-063-144-231300-
INTERIOR CENTRAL FLORIDA
  
CITY           SKY/WX    TMP DP  RH WIND       PRES   REMARKS
OCALA          FAIR      72  71  97 CALM      30.02R                  
LEESBURG       FAIR      75  74  96 NE6       30.02R                  
SANFORD        FAIR      76  72  87 NE3       30.00R                  
ORLANDO EXEC   FAIR      78  74  87 NE6       29.99R                  
ORLANDO INTL   FAIR      78  74  87 NE7       29.99R                  
KISSIMMEE      FAIR      77  74  90 NE3       30.01R                  
WINTER HAVEN   FAIR      78  76  93 CALM      30.01R                  
LAKELAND       CLEAR     75  73  94 E3        30.00R                  
SEBRING        FAIR      75  73  93 CALM      29.99R                  
OKEECHOBEE       N/A     72  72 100 CALM      29.98R                  

$$
FLZ041-047-054-059-064-141-147-231300-
EAST CENTRAL FLORIDA
  
CITY           SKY/WX    TMP DP  RH WIND       PRES   REMARKS
ORMOND BEACH   PTCLDY    72  72 100 CALM      30.01R                  
DAYTONA BEACH  FAIR      75  74  96 CALM      30.00R                  
DELAND         FAIR      73  72  94 CALM      30.00S                  
NEW SMYRNA BEA PTCLDY    79  72  78 CALM      30.01R                  
JFK SPACE CTR  FAIR      77  72  83 E3        29.99R                  
TITUSVILLE     PTCLDY    82  73  74 E7        30.00                   
CAPE CANAVERAL FAIR      81  72  73 E9        29.98R                  
PATRICK AFB    FAIR      82  75  78 E12       29.98R                  
MELBOURNE      MOCLDY    83  74  74 E10       29.98R                  
VERO BEACH     FAIR      75  73  93 N3        29.98R                  
FT PIERCE      FAIR      76  75  97 CALM      29.97R                  
STUART         MOSUNNY   79  75  89 CALM      29.97S                  

STATION/POSITION SKY/WX   TEMP    WIND        PRES    WAVE   SWELL
                          AIR SEA DIR/SP/G            HT/PER HT/PER
                          (F)     (DEG/KT/KT) (MB)    (FT/S) (FT/S)
28.5N   80.2W              83      80/ 10/ 14 1015.7R   4/12   3/12
28.9N   78.5W              82 85   70/ 10/ 14 1016.3R
TRIDENT PIER               81 85              1017.0R
28.4N   80.5W                 85                N/A     3/13   2/13
27.5N   80.2W                 84                N/A     3/11   2/11

$$
FLZ050-056-061-142-242-148-248-149-249-151-251-155-255-
160-260-231300-
WEST CENTRAL FLORIDA
  
CITY           SKY/WX    TMP DP  RH WIND       PRES   REMARKS
CRYSTAL RIVER  FAIR      72  72 100 CALM      30.01R                  
BROOKSVILLE    FAIR      73  71  93 CALM      30.01R                  
CLEARWATER AIR FAIR      75  73  94 E3        29.98S                  
ST PETE CLEARW FAIR      78  75  90 E6        29.98R                  
TAMPA INTL     FAIR      79  73  82 NE3       29.99R                  
TAMPA EXEC     FAIR      73  73 100 CALM      30.00S                  
PLANT CITY     FAIR      75  73  94 CALM      30.02R                  
MACDILL AFB    FAIR      78  74  88 E8        29.98R                  
PETER O KNIGHT   N/A    N/A N/A N/A NE6       29.98S                  
ST PETERSBURG  FAIR      79  76  90 E10       29.96S                  
SARASOTA       FAIR      75  75 100 E6        29.96R                  
VENICE         FAIR      77  77 100 E6        29.98R                  

STATION/POSITION SKY/WX   TEMP    WIND        PRES    WAVE   SWELL
                          AIR SEA DIR/SP/G            HT/PER HT/PER
                          (F)     (DEG/KT/KT) (MB)    (FT/S) (FT/S)
CLEARWATER BEACH           77 87              1015.2R
MIDDLE TAMPA BAY           78                 1015.0R
VENICE                     76 85   80/  5/  7   N/A

$$
FLZ066-069-070-075>078-162-262-165-265-231300-
SOUTHWEST FLORIDA AND KEYS
  
CITY           SKY/WX    TMP DP  RH WIND       PRES   REMARKS
PUNTA GORDA    FAIR      77  74  90 NE3       29.99R                  
FT MYERS       FAIR      76  75  97 CALM      29.97R                  
SOUTHWEST INTL FAIR      76  75  97 E5        29.98R                  
NAPLES         FAIR      77  74  90 NE3       29.97R                  
MARCO ISLAND   FAIR      76  75  97 MISG      29.98R                  
IMMOKALEE        N/A     75  73  94 CALM      29.97R                  
MARATHON       FAIR      83  75  77 SE3       29.95R                  
KEY WEST NAS   MOCLDY    82  76  81 E5        29.95R                  
KEY WEST INTL  FAIR      84  76  76 E5        29.95R                  

STATION/POSITION SKY/WX   TEMP    WIND        PRES    WAVE   SWELL
                          AIR SEA DIR/SP/G            HT/PER HT/PER
                          (F)     (DEG/KT/KT) (MB)    (FT/S) (FT/S)
NAPLES                     77 86              1014.6R
26.0N   85.6W              81 85  160/ 16/ 17 1013.7R   2/ 4
DRY TORTUGAS               84     130/  7/  8 1014.3R
SAND KEY                   83                 1014.0R
SOMBRERO KEY               83      60/  3/  5 1013.3R
LONG KEY                   84 86  110/  6/  7 1014.1R
MOLASSES REEF              83     130/  8       N/A

$$
FLZ067-068-071>074-168-172>174-231300-
SOUTHEAST FLORIDA 
  
CITY           SKY/WX    TMP DP  RH WIND       PRES   REMARKS
W PALM BEACH   FAIR      78  77  96 CALM      29.96S                  
BOCA RATON     SUNNY     75  73  94 CALM      29.96R                  
FT LAUDER-EXEC FAIR      78  76  93 CALM      29.96R                  
FT LAUDERDALE  FAIR      79  76  90 W3        29.96R                  
POMPANO BEACH  FAIR      79  74  84 CALM      29.96R                  
PEMBROKE PINES FAIR      80  76  87 CALM      29.98R                  
OPA LOCKA      FAIR      80  75  84 N3        29.97R                  
MIAMI          FAIR      81  73  76 N3        29.96R                  
WEST KENDALL   FAIR      79  75  87 CALM      29.96R                  
HOMESTEAD      FAIR      79  76  90 SW5       29.95R                  

STATION/POSITION SKY/WX   TEMP    WIND        PRES    WAVE   SWELL
                          AIR SEA DIR/SP/G            HT/PER HT/PER
                          (F)     (DEG/KT/KT) (MB)    (FT/S) (FT/S)
PORT EVERGLADES            83      80/  4/  6 1014.5R
VIRGINIA KEY               84 88              1014.1R
LAKE WORTH                 83 86              1015.7R
FOWEY ROCKS                84 85   80/  8/ 10 1015.0R
SETTLEMENT POINT           82     150/  4/  4 1014.8R

$$